(514999) = 2009 ON14

Discovered at Kitt Peak on 2009-07-14 by Spacewatch.

Orbit

Orbit type: Main Belt

Note: WebGL enabled browser required.

epoch2024-03-31.0
epoch JD2460400.5
perihelion date2021-04-02.07284
perihelion JD2459306.57284
argument of perihelion (°)185.19829
ascending node (°)157.03080
inclination (°)28.65452
eccentricity0.1911556
perihelion distance (AU)2.5927999
Tisserand w.r.t. Jupiter3.0
ΔV w.r.t. Earth (km/sec)13.4
semimajor axis (AU)3.2055610
mean anomaly (°)187.86081
mean daily motion (°/day)0.17173060
aphelion distance (AU)3.818
period (years)5.74
P-vector [x]0.94795425
P-vector [y]-0.27211796
P-vector [z]-0.16533167
Q-vector [x]0.25761509
Q-vector [y]0.96063215
Q-vector [z]-0.10402083
absolute magnitude15.79
phase slope0.15
uncertainty0
referenceMPEC 2024-F14
observations used207
oppositions7
arc length (days)5360
first opposition used2009
last opposition used2024
residual rms (arc-secs)0.76
perturbers coarse indicatorM-v
perturbers precise indicator003Ek
first observation date used2009-07-14.0
last observation date used2024-03-17.0
computer nameMPCLINUX
Minimum Orbit Intersection Distances (in AU)
for orbit epoch: 2460400.5, reference: E2024-GF4
Mercury2.20549
Venus1.86534
Earth1.58487
Mars1.21097
Jupiter1.58465
Saturn5.50234
Uranus14.6238
Neptune26.6269

Observations

202 total observations over interval: 2009 07 14.35627 – 2024 03 17.365810
These data are available for download (format description).

Date (UT) J2000 RA J2000 Dec Magn Location Ref
2009 07 14.35627 22 11 36.90 +02 59 50.4   691 – Steward Observatory, Kitt Peak-Spacewatch MPS 294465
2009 07 14.37386 22 11 36.73 +02 59 42.5   691 – Steward Observatory, Kitt Peak-Spacewatch MPS 294465
2009 07 14.39154 22 11 36.57 +02 59 35.0   691 – Steward Observatory, Kitt Peak-Spacewatch MPS 294465
2009 07 30.38776 22 06 52.17 +00 26 25.2 19.7 V 691 – Steward Observatory, Kitt Peak-Spacewatch MPS 290321
2009 07 30.40540 22 06 51.66 +00 26 12.7 19.7 V 691 – Steward Observatory, Kitt Peak-Spacewatch MPS 290321
2009 07 30.42303 22 06 51.16 +00 26 00.1 19.8 V 691 – Steward Observatory, Kitt Peak-Spacewatch MPS 290321
2009 07 31.33567 22 06 26.39 +00 15 02.5 19.7 V 691 – Steward Observatory, Kitt Peak-Spacewatch MPS 290321
2009 07 31.35092 22 06 25.92 +00 14 51.7 19.7 V 691 – Steward Observatory, Kitt Peak-Spacewatch MPS 290321
2009 07 31.36617 22 06 25.47 +00 14 40.5 19.7 V 691 – Steward Observatory, Kitt Peak-Spacewatch MPS 290321
2009 08 15.29339 21 58 03.72 -03 13 08.6 19.2 V 703 – Catalina Sky Survey MPS 295068
2009 08 15.30058 21 58 03.54 -03 13 14.1 19.2 V 703 – Catalina Sky Survey MPS 295068
2009 08 15.30781 21 58 03.18 -03 13 22.5 19.3 V 703 – Catalina Sky Survey MPS 295068
2009 08 15.31510 21 58 02.96 -03 13 27.7 18.8 V 703 – Catalina Sky Survey MPS 295068
2009 08 27.25097 21 50 23.06 -06 25 40.3 19.3 V 703 – Catalina Sky Survey MPS 295068
2009 08 27.25919 21 50 22.74 -06 25 48.6 19.2 V 703 – Catalina Sky Survey MPS 295068
2009 08 27.26747 21 50 22.41 -06 25 56.6 19.2 V 703 – Catalina Sky Survey MPS 295068
2009 08 27.27562 21 50 22.05 -06 26 04.7 19.6 V 703 – Catalina Sky Survey MPS 295068
2009 09 09.85753 21 42 43.49 -10 06 16.6 19.3 V J75 – OAM Observatory, La Sagra MPS 294465
2009 09 09.86993 21 42 43.12 -10 06 27.7 19.0 V J75 – OAM Observatory, La Sagra MPS 294465
2009 09 09.88258 21 42 42.66 -10 06 39.6 19.3 V J75 – OAM Observatory, La Sagra MPS 294465
2009 09 14.18758 21 40 50.68 -11 12 24.8 19.5   704 – Lincoln Laboratory ETS, New Mexico MPS 295068
2009 09 14.21120 21 40 50.08 -11 12 46.2 19.8   704 – Lincoln Laboratory ETS, New Mexico MPS 295068
2009 09 14.22299 21 40 49.84 -11 12 55.2 19.8   704 – Lincoln Laboratory ETS, New Mexico MPS 295068
2009 09 14.23477 21 40 49.58 -11 13 06.5 19.7   704 – Lincoln Laboratory ETS, New Mexico MPS 295068
2014 04 08.54467 17 22 35.881 +11 54 46.30 21.1 w F51 – Pan-STARRS 1, Haleakala MPS 528155
2014 04 08.55627 17 22 36.006 +11 54 53.46 21.3 w F51 – Pan-STARRS 1, Haleakala MPS 528155
2014 04 08.57947 17 22 36.183 +11 55 06.72 21.0 w F51 – Pan-STARRS 1, Haleakala MPS 528155
2014 06 18.49193 16 49 54.370 +18 13 19.05 20.2 i F51 – Pan-STARRS 1, Haleakala MPS 528155
2014 06 18.50586 16 49 53.721 +18 13 16.48 20.5 i F51 – Pan-STARRS 1, Haleakala MPS 528155
2014 06 18.52000 16 49 53.095 +18 13 13.94 20.4 i F51 – Pan-STARRS 1, Haleakala MPS 528155
2014 06 18.53400 16 49 52.453 +18 13 11.39 20.3 i F51 – Pan-STARRS 1, Haleakala MPS 528155
2014 07 04.38904 16 39 41.884 +16 52 39.32 20.4 i F51 – Pan-STARRS 1, Haleakala MPS 528155
2014 07 04.41328 16 39 41.063 +16 52 28.76 20.7 i F51 – Pan-STARRS 1, Haleakala MPS 528155
2014 07 04.42541 16 39 40.677 +16 52 23.79 20.1 i F51 – Pan-STARRS 1, Haleakala MPS 528155
2014 08 21.25565 16 37 48.743 +08 32 43.75 21.0 w F51 – Pan-STARRS 1, Haleakala MPS 528155
2014 08 21.26779 16 37 49.069 +08 32 34.88 21.0 w F51 – Pan-STARRS 1, Haleakala MPS 528155
2014 08 21.27987 16 37 49.384 +08 32 26.18 21.1 w F51 – Pan-STARRS 1, Haleakala MPS 528155
2014 08 21.29196 16 37 49.712 +08 32 17.50 21.0 w F51 – Pan-STARRS 1, Haleakala MPS 528155
2014 08 24.21530 16 39 15.89 +07 57 08.9 20.4 R 291 – LPL/Spacewatch II MPS 528155
2014 08 24.26192 16 39 17.32 +07 56 35.5 20.7 R 291 – LPL/Spacewatch II MPS 528155
2014 08 25.25452 16 39 48.989 +07 44 41.40 21.0 r F51 – Pan-STARRS 1, Haleakala MPS 528155
2014 08 25.26709 16 39 49.376 +07 44 32.29 21.0 r F51 – Pan-STARRS 1, Haleakala MPS 528155
2014 08 25.27956 16 39 49.768 +07 44 23.33 21.0 r F51 – Pan-STARRS 1, Haleakala MPS 528155
2014 08 25.29206 16 39 50.159 +07 44 14.23 21.1 r F51 – Pan-STARRS 1, Haleakala MPS 528155
2015 08 09.57339 00 35 19.454 -05 43 08.22 19.8 i F51 – Pan-STARRS 1, Haleakala MPS 619778
2015 08 09.59646 00 35 19.705 -05 43 26.00 19.7 i F51 – Pan-STARRS 1, Haleakala MPS 619778
2015 08 09.60820 00 35 19.825 -05 43 35.27 19.6 i F51 – Pan-STARRS 1, Haleakala MPS 619778
2015 08 15.41591 00 36 08.20 -07 02 52.3 20.3 r G45 – Space Surveillance Telescope, Atom Site MPS 623305
2015 08 15.42110 00 36 08.20 -07 02 56.0 20.3 r G45 – Space Surveillance Telescope, Atom Site MPS 623305
2015 08 15.42510 00 36 08.22 -07 02 59.7 20.1 r G45 – Space Surveillance Telescope, Atom Site MPS 623305
2015 08 15.43019 00 36 08.23 -07 03 04.6 20.0 r G45 – Space Surveillance Telescope, Atom Site MPS 623305
2015 08 15.43508 00 36 08.22 -07 03 08.7 20.4 r G45 – Space Surveillance Telescope, Atom Site MPS 623305
2015 08 17.41699 00 36 13.82 -07 31 52.8 20.0 r G45 – Space Surveillance Telescope, Atom Site MPS 621200
2015 08 17.42089 00 36 13.79 -07 31 56.7 19.9 r G45 – Space Surveillance Telescope, Atom Site MPS 621200
2015 08 17.42585 00 36 13.81 -07 32 00.8 20.2 r G45 – Space Surveillance Telescope, Atom Site MPS 621200
2015 08 17.43083 00 36 13.82 -07 32 05.3 19.9 r G45 – Space Surveillance Telescope, Atom Site MPS 621200
2015 08 18.38768 00 36 14.57 -07 46 15.4 20.3 G G45 – Space Surveillance Telescope, Atom Site MPS 1611188
2015 08 18.43351 00 36 14.47 -07 46 56.4 20.0 G G45 – Space Surveillance Telescope, Atom Site MPS 1611188
2015 08 18.43607 00 36 14.48 -07 46 59.0 19.8 G G45 – Space Surveillance Telescope, Atom Site MPS 1611188
2015 08 18.48052 00 36 14.41 -07 47 38.4 19.4 G G45 – Space Surveillance Telescope, Atom Site MPS 1611188
2015 09 08.50318 00 31 20.345 -13 30 53.36 19.1 i F51 – Pan-STARRS 1, Haleakala MPS 624159
2015 09 08.51420 00 31 20.025 -13 31 04.53 19.2 i F51 – Pan-STARRS 1, Haleakala MPS 624159
2015 09 08.52522 00 31 19.707 -13 31 15.75 19.2 i F51 – Pan-STARRS 1, Haleakala MPS 624159
2015 09 08.53624 00 31 19.394 -13 31 26.99 19.2 i F51 – Pan-STARRS 1, Haleakala MPS 624159
2015 09 15.32276 00 27 58.04 -15 25 25.0 19.6 r G45 – Space Surveillance Telescope, Atom Site MPS 626837
2015 09 15.32835 00 27 57.86 -15 25 30.6 19.7 r G45 – Space Surveillance Telescope, Atom Site MPS 626837
2015 09 15.33313 00 27 57.72 -15 25 34.7 19.4 r G45 – Space Surveillance Telescope, Atom Site MPS 626837
2015 09 15.33822 00 27 57.50 -15 25 40.2 19.5 r G45 – Space Surveillance Telescope, Atom Site MPS 626837
2015 09 15.34378 00 27 57.33 -15 25 45.6 19.6 r G45 – Space Surveillance Telescope, Atom Site MPS 626837
2015 09 18.65383 00 26 06.42 -16 19 33.4 19.6 R Q60 – ISON-SSO Observatory, Siding Spring MPS 628717
2015 09 18.66309 00 26 06.09 -16 19 42.1 19.5 R Q60 – ISON-SSO Observatory, Siding Spring MPS 628717
2015 09 18.67232 00 26 05.69 -16 19 50.1 19.5 R Q60 – ISON-SSO Observatory, Siding Spring MPS 628717
2015 10 02.42827 00 17 46.47 -19 40 21.5 19.8 R Q60 – ISON-SSO Observatory, Siding Spring MPS 628686
2015 10 02.43754 00 17 46.09 -19 40 28.8 19.9 R Q60 – ISON-SSO Observatory, Siding Spring MPS 628686
2015 10 02.44674 00 17 45.75 -19 40 36.6 20.2 R Q60 – ISON-SSO Observatory, Siding Spring MPS 628686
2015 10 10.45522 00 13 05.97 -21 12 58.0 20.1 R Q60 – ISON-SSO Observatory, Siding Spring MPS 631430
2015 10 10.46442 00 13 05.67 -21 13 04.0 19.8 R Q60 – ISON-SSO Observatory, Siding Spring MPS 631430
2015 10 10.47368 00 13 05.30 -21 13 08.9 19.6 R Q60 – ISON-SSO Observatory, Siding Spring MPS 631430
2015 10 12.27478 00 12 07.14 -21 31 03.8 20.2 V 703 – Catalina Sky Survey MPS 631430
2015 10 12.27986 00 12 06.95 -21 31 06.3 19.6 V 703 – Catalina Sky Survey MPS 631430
2015 10 12.29007 00 12 06.68 -21 31 13.4 19.4 V 703 – Catalina Sky Survey MPS 631430
2015 10 14.25199 00 11 06.41 -21 49 20.6 20.3 V 703 – Catalina Sky Survey MPS 631430
2015 10 14.26109 00 11 06.14 -21 49 25.1 18.9 V 703 – Catalina Sky Survey MPS 631430
2015 10 14.26563 00 11 05.87 -21 49 29.0 19.4 V 703 – Catalina Sky Survey MPS 631430
2015 12 04.22181 00 12 04.872 -22 44 07.64 20.9 w F51 – Pan-STARRS 1, Haleakala MPS 653545
2015 12 04.23286 00 12 05.229 -22 44 04.21 20.8 w F51 – Pan-STARRS 1, Haleakala MPS 653545
2015 12 04.24389 00 12 05.595 -22 44 01.22 21.0 w F51 – Pan-STARRS 1, Haleakala MPS 653545
2018 02 21.43744 10 12 38.364 +07 24 42.77 21.0 w F51 – Pan-STARRS 1, Haleakala MPS 870108
